Location: Unspecified
(0.0000°N, 0.0000°E)
Time: 23:41:47
(UTC+00:00)

Hubble Space Telescope - Pass Details

Date: 20 January 2022
Orbit: 534 x 538 km, 28.5° (Epoch: 27 January)

Event Time Altitude Azimuth Distance (km) Brightness Sun altitude
Rises 18:35:22 0° 211° (SSW) 2,669 5.2 -5.7°
Reaches altitude 10° 18:38:31 10° 186° (S) 1,779 3.8 -6.4°
Maximum altitude 18:40:48 14° 152° (SSE) 1,518 3.0 -7.0°
Drops below altitude 10° 18:43:05 10° 118° (ESE) 1,778 3.0 -7.5°
Enters shadow 18:44:35 - 104° (ESE) 2,161 3.3 -7.9°
